When you browse on this site, cookies collect data to enhance your experience and personalize the content and advertising you see.
Visit our Privacy Policy to learn more. By continuing to use the site, you agree to this use of cookies and data.
  • In Hungary
  • List of Countries
  • For 7 days
  • Water Temperature
  • Satellite Maps
  • Weather Map
  • News
  • Weather Widgets
  • user-avatar
    Login

    Hourly Weather Andria

    Today, 24 January, Thursday

    Time Temperature Precipitation Wind Pressure Humidity
    00:00 +6°C° 0 mm 1 mps 732 mmHg 74%
    01:00 +5°C° 0 mm 2 mps 731 mmHg 75%
    02:00 +5°C° 0 mm 2 mps 731 mmHg 77%
    03:00 +5°C° 0 mm 2 mps 731 mmHg 78%
    04:00 +4°C° 0 mm 2 mps 731 mmHg 79%
    05:00 +4°C° 0 mm 3 mps 731 mmHg 79%
    06:00 +4°C° 0 mm 3 mps 730 mmHg 80%
    07:00 +4°C° 0 mm 3 mps 730 mmHg 80%
    08:00 +6°C° 0 mm 4 mps 730 mmHg 76%
    09:00 +7°C° 0 mm 5 mps 730 mmHg 72%
    10:00 +9°C° 0 mm 6 mps 730 mmHg 68%
    11:00 +9°C° 0.1 mm 6 mps 730 mmHg 67%
    12:00 +9°C° 0.1 mm 6 mps 730 mmHg 67%
    13:00 +10°C° 0.1 mm 7 mps 730 mmHg 66%
    14:00 +10°C° 0.3 mm 7 mps 730 mmHg 68%
    15:00 +10°C° 0.3 mm 7 mps 730 mmHg 69%
    16:00 +10°C° 0.3 mm 7 mps 729 mmHg 71%
    17:00 +9°C° 0.3 mm 7 mps 729 mmHg 74%
    18:00 +7°C° 0.3 mm 8 mps 729 mmHg 77%
    19:00 +7°C° 0.3 mm 8 mps 729 mmHg 81%
    20:00 +7°C° 0.3 mm 8 mps 729 mmHg 80%
    21:00 +7°C° 0.3 mm 8 mps 730 mmHg 79%
    22:00 +7°C° 0.3 mm 8 mps 730 mmHg 79%
    23:00 +7°C° 0.3 mm 8 mps 730 mmHg 77%

    Tomorrow, 25 January, Friday

    Time Temperature Precipitation Wind Pressure Humidity
    00:00 +7°C° 0.3 mm 9 mps 730 mmHg 75%
    01:00 +7°C° 0.3 mm 9 mps 729 mmHg 73%
    02:00 +7°C° 0.7 mm 8 mps 729 mmHg 73%
    03:00 +6°C° 0.7 mm 8 mps 729 mmHg 74%
    04:00 +6°C° 0.7 mm 8 mps 729 mmHg 75%
    05:00 +6°C° 0.8 mm 7 mps 730 mmHg 76%
    06:00 +5°C° 0.8 mm 7 mps 730 mmHg 78%
    07:00 +5°C° 0.8 mm 6 mps 730 mmHg 79%
    08:00 +5°C° 1.2 mm 6 mps 731 mmHg 80%
    09:00 +5°C° 1.2 mm 6 mps 731 mmHg 81%
    10:00 +5°C° 1.2 mm 6 mps 732 mmHg 81%
    11:00 +5°C° 1.2 mm 7 mps 732 mmHg 81%
    12:00 +5°C° 1.2 mm 7 mps 733 mmHg 82%
    13:00 +5°C° 1.2 mm 7 mps 733 mmHg 82%
    14:00 +5°C° 0.7 mm 8 mps 733 mmHg 81%
    15:00 +4°C° 0.7 mm 8 mps 733 mmHg 80%
    16:00 +3°C° 0.7 mm 9 mps 733 mmHg 79%
    17:00 +4°C° 0.5 mm 8 mps 734 mmHg 80%
    18:00 +4°C° 0.5 mm 8 mps 734 mmHg 81%
    19:00 +4°C° 0.5 mm 8 mps 735 mmHg 83%
    20:00 +4°C° 0.3 mm 8 mps 735 mmHg 82%
    21:00 +4°C° 0.3 mm 8 mps 736 mmHg 82%
    22:00 +4°C° 0.3 mm 8 mps 736 mmHg 82%
    23:00 +4°C° 0.3 mm 8 mps 736 mmHg 81%

    Day after tomorrow, 26 January, Saturday

    Time Temperature Precipitation Wind Pressure Humidity
    00:00 +4°C° 0.3 mm 8 mps 736 mmHg 80%
    01:00 +3°C° 0.3 mm 9 mps 736 mmHg 79%
    02:00 +3°C° 0.6 mm 9 mps 737 mmHg 79%
    03:00 +3°C° 0.6 mm 9 mps 737 mmHg 78%
    04:00 +3°C° 0.6 mm 9 mps 737 mmHg 78%
    05:00 +3°C° 0.3 mm 9 mps 737 mmHg 78%
    06:00 +3°C° 0.3 mm 9 mps 738 mmHg 77%
    07:00 +3°C° 0.3 mm 9 mps 738 mmHg 76%
    08:00 +3°C° 0.1 mm 9 mps 739 mmHg 75%
    09:00 +5°C° 0.1 mm 9 mps 740 mmHg 74%
    10:00 +5°C° 0.1 mm 10 mps 740 mmHg 73%
    11:00 +6°C° 0 mm 9 mps 740 mmHg 71%
    12:00 +6°C° 0 mm 9 mps 741 mmHg 69%
    13:00 +7°C° 0 mm 9 mps 741 mmHg 67%
    14:00 +6°C° 0 mm 9 mps 741 mmHg 69%
    15:00 +6°C° 0 mm 8 mps 742 mmHg 71%
    16:00 +6°C° 0 mm 8 mps 742 mmHg 72%
    17:00 +5°C° 0 mm 8 mps 742 mmHg 75%
    18:00 +5°C° 0 mm 7 mps 743 mmHg 77%
    19:00 +4°C° 0 mm 7 mps 743 mmHg 80%
    20:00 +4°C° 0 mm 6 mps 744 mmHg 80%
    21:00 +3°C° 0 mm 6 mps 744 mmHg 81%
    22:00 +3°C° 0 mm 6 mps 744 mmHg 81%
    23:00 +2°C° 0 mm 5 mps 744 mmHg 81%

    27 January, Sunday

    Time Temperature Precipitation Wind Pressure Humidity
    00:00 +2°C° 0 mm 5 mps 744 mmHg 82%
    01:00 +2°C° 0 mm 5 mps 744 mmHg 82%
    02:00 +2°C° 0 mm 5 mps 744 mmHg 80%
    03:00 +1°C° 0 mm 4 mps 744 mmHg 77%
    04:00 +1°C° 0 mm 4 mps 743 mmHg 75%
    05:00 +1°C° 0 mm 4 mps 744 mmHg 71%
    06:00 +2°C° 0 mm 3 mps 744 mmHg 68%
    07:00 +2°C° 0 mm 3 mps 744 mmHg 64%
    08:00 +4°C° 0 mm 3 mps 744 mmHg 59%
    09:00 +7°C° 0 mm 2 mps 744 mmHg 54%
    10:00 +9°C° 0 mm 2 mps 744 mmHg 49%
    11:00 +10°C° 0 mm 2 mps 743 mmHg 48%
    12:00 +12°C° 0 mm 3 mps 743 mmHg 46%
    13:00 +13°C° 0 mm 3 mps 743 mmHg 45%
    14:00 +12°C° 0 mm 3 mps 742 mmHg 50%
    15:00 +12°C° 0 mm 3 mps 742 mmHg 56%
    16:00 +12°C° 0 mm 3 mps 742 mmHg 61%
    17:00 +10°C° 0 mm 3 mps 742 mmHg 66%
    18:00 +8°C° 0 mm 4 mps 742 mmHg 71%
    19:00 +6°C° 0 mm 4 mps 742 mmHg 76%
    20:00 +6°C° 0 mm 4 mps 741 mmHg 76%
    21:00 +6°C° 0 mm 5 mps 741 mmHg 76%
    22:00 +5°C° 0 mm 5 mps 741 mmHg 76%
    23:00 +5°C° 0 mm 5 mps 741 mmHg 77%

    28 January, Monday

    Time Temperature Precipitation Wind Pressure Humidity
    00:00 +5°C° 0 mm 5 mps 741 mmHg 77%
    01:00 +5°C° 0 mm 5 mps 740 mmHg 77%
    02:00 +5°C° 0 mm 5 mps 740 mmHg 76%
    03:00 +5°C° 0 mm 5 mps 739 mmHg 74%
    04:00 +5°C° 0 mm 6 mps 738 mmHg 73%
    05:00 +5°C° 0 mm 6 mps 738 mmHg 75%
    06:00 +5°C° 0 mm 6 mps 738 mmHg 77%
    07:00 +5°C° 0 mm 6 mps 737 mmHg 78%
    08:00 +8°C° 0 mm 7 mps 737 mmHg 75%
    09:00 +9°C° 0 mm 8 mps 737 mmHg 71%
    10:00 +11°C° 0 mm 8 mps 737 mmHg 67%
    11:00 +11°C° 0.2 mm 8 mps 737 mmHg 66%
    12:00 +11°C° 0.2 mm 8 mps 737 mmHg 66%
    13:00 +11°C° 0.2 mm 7 mps 737 mmHg 66%
    14:00 +11°C° 0.1 mm 7 mps 737 mmHg 65%
    15:00 +11°C° 0.1 mm 6 mps 737 mmHg 64%
    16:00 +11°C° 0.1 mm 6 mps 737 mmHg 64%
    17:00 +10°C° 0 mm 5 mps 737 mmHg 68%
    18:00 +8°C° 0 mm 5 mps 737 mmHg 72%
    19:00 +7°C° 0 mm 5 mps 738 mmHg 75%
    20:00 +7°C° 0 mm 5 mps 738 mmHg 75%
    21:00 +7°C° 0 mm 5 mps 738 mmHg 75%
    22:00 +7°C° 0 mm 5 mps 739 mmHg 75%
    23:00 +6°C° 0 mm 5 mps 739 mmHg 75%

    29 January, Tuesday

    Time Temperature Precipitation Wind Pressure Humidity
    00:00 +6°C° 0 mm 5 mps 739 mmHg 75%
    01:00 +6°C° 0 mm 5 mps 739 mmHg 75%
    02:00 +6°C° 0 mm 4 mps 739 mmHg 75%
    03:00 +6°C° 0 mm 4 mps 739 mmHg 76%
    04:00 +7°C° 0 mm 3 mps 739 mmHg 76%
    05:00 +7°C° 0 mm 3 mps 739 mmHg 75%
    06:00 +7°C° 0 mm 3 mps 739 mmHg 75%
    07:00 +7°C° 0 mm 2 mps 739 mmHg 74%
    08:00 +8°C° 0 mm 2 mps 740 mmHg 70%
    09:00 +9°C° 0 mm 2 mps 740 mmHg 66%
    10:00 +11°C° 0 mm 1 mps 740 mmHg 62%
    11:00 +12°C° 0 mm 1 mps 740 mmHg 59%
    12:00 +12°C° 0 mm 1 mps 740 mmHg 56%
    13:00 +13°C° 0 mm 1 mps 740 mmHg 52%
    14:00 +13°C° 0 mm 2 mps 740 mmHg 55%
    15:00 +12°C° 0 mm 2 mps 740 mmHg 59%
    16:00 +11°C° 0 mm 3 mps 740 mmHg 62%
    17:00 +10°C° 0 mm 2 mps 740 mmHg 68%
    18:00 +9°C° 0 mm 2 mps 740 mmHg 73%
    19:00 +8°C° 0 mm 2 mps 740 mmHg 79%
    20:00 +7°C° 0.1 mm 2 mps 740 mmHg 82%
    21:00 +7°C° 0.1 mm 3 mps 741 mmHg 86%
    22:00 +7°C° 0.1 mm 3 mps 741 mmHg 90%
    23:00 +6°C° 0.1 mm 4 mps 741 mmHg 90%
    Show more